Weather observations for the past three days for
Deadhorse, Deadhorse Airport
Metric (Imperial)
Date Time (akdt) Wind (kph) Vis. (km) Weather Sky Cond. Temperature (ºC) Relative Humidity Wind Chill (°C) Heat Index (°C) Pressure Precipitation (cm)
Air Dwpt 6 hour altimeter (cm) sea level (mb) 1 hr 3 hr 6 hr
Max. Min.
21 22:53 NE 11 16.09 A Few Clouds FEW007 5.6 1.7 76% 3 76.4 1018.7
21 21:53 NE 13 16.09 A Few Clouds FEW005 6.1 1.7 9.4 6.1 74% 4 76.4 1018.8
21 20:53 NE 17 16.09 Fair CLR 6.1 1.7 74% 3 76.4 1018.8
21 19:53 NE 17 16.09 Fair CLR 7.2 1.7 68% 5 76.43 1019.0
21 18:53 N 17 16.09 Fair CLR 7.8 1.1 63% 5 76.43 1019.0
21 17:53 N 15 16.09 Fair CLR 8.3 1.1 61% 6 76.45 1019.2
21 16:53 N 17 16.09 Fair CLR 8.9 -0.6 52% 7 76.45 1019.5
21 15:53 N 15 16.09 Fair CLR 8.3 -1.1 8.9 6.7 52% 6 76.48 1019.6
21 14:53 NE 20 16.09 Fair CLR 7.8 -1.1 54% 5 76.5 1019.9
21 13:53 N 15 16.09 Fair CLR 7.8 -0.6 56% 6 76.5 1020.0
21 12:53 N 17 16.09 Fair CLR 8.3 -1.7 50% 6 76.5 1020.1
21 11:53 NE 17 16.09 Fair CLR 6.7 -1.7 55% 4 76.53 1020.3
21 10:53 N 7 16.09 Fair CLR 8.9 -0.6 52% 8 76.53 1020.3
21 09:53 Vrbl 6 16.09 Fair CLR 6.7 -1.1 6.7 0.6 58% 76.56 1020.6
21 08:53 Calm 16.09 Fair CLR 5.6 -0.6 65% 76.56 1020.8
21 07:53 N 6 16.09 Fair CLR 3.9 -1.7 67% 76.58 1021.0
21 06:53 NE 6 16.09 Fair CLR 3.3 -0.6 76% 76.58 1021.0
21 05:53 N 9 16.09 A Few Clouds FEW005 1.1 -1.1 85% -1 76.58 1021.0
21 04:53 N 11 16.09 A Few Clouds FEW005 1.1 -1.1 85% -2 76.58 1021.2
21 03:53 N 7 16.09 A Few Clouds FEW005 0.6 -1.7 2.8 0.6 85% -1 76.61 1021.3
21 02:53 N 9 16.09 A Few Clouds FEW005 0.6 -2.2 82% -2 76.61 1021.4
21 01:53 NE 9 16.09 A Few Clouds FEW005 1.1 -1.7 82% -1 76.61 1021.3
21 00:53 E 11 16.09 A Few Clouds FEW005 1.1 -2.2 79% -2 76.61 1021.4
20 23:53 NE 17 16.09 A Few Clouds FEW005 FEW250 1.7 -2.2 76% -2 76.61 1021.4
20 22:53 NE 17 16.09 A Few Clouds FEW005 FEW250 2.2 -1.7 76% -2 76.61 1021.5
20 21:53 NE 20 16.09 A Few Clouds FEW005 FEW260 3.3 -1.7 4.4 2.8 70% -1 76.61 1021.5
20 20:53 NE 20 16.09 A Few Clouds FEW005 FEW260 2.8 -1.1 76% -1 76.63 1021.8
20 19:53 NE 22 16.09 A Few Clouds FEW005 FEW260 3.3 -1.1 73% -1 76.66 1021.9
20 18:53 NE 20 16.09 Fair CLR 3.9 -0.6 73% 0 76.66 1021.9
20 17:53 NE 17 16.09 A Few Clouds FEW009 3.9 -1.1 70% 0 76.68 1022.3
20 16:53 NE 15 16.09 Partly Cloudy SCT010 3.3 -1.1 73% 0 76.68 1022.6
20 15:53 NE 17 16.09 Mostly Cloudy BKN010 3.3 -1.1 3.9 1.1 73% -0 76.71 1022.8
20 14:53 NE 6 16.09 Overcast OVC008 2.8 -1.1 76% 76.73 1023.1
20 13:53 NE 7 16.09 Overcast OVC007 2.2 -1.1 79% 0 76.76 1023.4
20 12:53 N 9 16.09 Overcast OVC008 2.8 -1.1 76% 1 76.76 1023.3
20 11:53 E 7 16.09 Overcast OVC006 1.7 -1.1 82% -0 76.76 1023.4
20 10:53 Vrbl 6 8.05 Fog/Mist OVC004 1.1 0 92% 76.76 1023.3
20 09:53 N 7 4.83 Fog/Mist OVC003 1.1 -0.6 1.7 1.1 89% -1 76.76 1023.4
20 08:53 N 6 6.44 Fog/Mist OVC003 1.1 -0.6 89% 76.73 1023.3
20 07:53 NE 9 2.41 Fog/Mist OVC002 1.1 -0.6 89% -1 76.71 1022.9
20 06:53 N 9 4.83 Fog/Mist OVC004 1.1 0 92% -1 76.71 1022.9
20 05:53 N 11 4.02 Fog/Mist OVC004 1.1 0 92% -2 76.71 1022.7
20 04:53 N 9 2.41 Fog/Mist OVC002 1.1 0 92% -1 76.68 1022.5
20 03:53 N 7 0.80 Fog VV004 1.7 0.6 3.9 1.1 93% -0 76.68 1022.3
20 02:53 N 13 0.80 Fog VV003 1.7 0 89% -2 76.66 1022.2
20 01:53 N 11 0.80 Fog OVC002 1.7 0 89% -1 76.63 1021.9
20 00:53 N 13 11.27 Overcast OVC004 2.2 0 86% -1 76.63 1021.7
19 23:53 NE 11 16.09 Overcast OVC004 3.3 1.1 86% 1 76.61 1021.4
19 22:53 N 11 12.87 Overcast OVC004 3.3 1.1 86% 1 76.61 1021.2
19 21:53 N 15 16.09 Overcast OVC005 3.9 0.6 6.7 3.9 79% 1 76.58 1021.2
19 20:53 NE 13 16.09 Overcast OVC020 5 1.7 79% 2 76.56 1020.7
19 19:53 NE 15 16.09 Overcast BKN014 OVC021 5.6 1.1 73% 3 76.56 1020.8
19 18:53 NE 15 16.09 Overcast FEW013 OVC023 6.1 1.1 71% 3 76.56 1020.8
19 17:53 NE 15 16.09 Overcast FEW016 OVC024 6.7 1.1 68% 4 76.56 1020.8
19 16:53 NE 17 9.66 Overcast OVC024 6.7 1.1 68% 4 76.56 1020.8
19 15:53 NE 17 11.27 Overcast OVC024 6.7 1.1 8.3 5 68% 4 76.53 1020.5
19 14:53 NE 17 4.83 Overcast with Haze OVC024 6.1 1.1 71% 3 76.53 1020.4
19 13:53 NE 17 16.09 Overcast OVC024 6.7 1.1 68% 4 76.53 1020.3
19 12:53 NE 19 16.09 Overcast OVC023 6.7 1.1 68% 4 76.5 1020.1
19 11:53 NE 22 16.09 Mostly Cloudy BKN022 8.3 1.1 61% 5 76.48 1019.8
19 10:53 E 22 16.09 Fair CLR 6.7 0 63% 3 76.45 1019.5
19 09:53 NE 20 16.09 Fair CLR 5 -1.1 5.6 0.6 65% 1 76.45 1019.3
19 08:53 E 26 16.09 Fair CLR 3.9 -1.7 67% -1 76.43 1019.0
19 07:53 E 19 16.09 Fair CLR 3.3 -1.7 70% -1 76.43 1018.9
19 06:53 E 26 16.09 Fair CLR 2.2 -2.2 73% -3 76.38 1018.4
19 05:53 NE 26 16.09 A Few Clouds FEW005 FEW090 1.7 -2.2 76% -3 76.35 1018.2
19 04:53 E 26 16.09 A Few Clouds FEW005 FEW090 1.1 -2.2 79% -4 76.33 1017.8
19 03:53 NE 24 16.09 A Few Clouds FEW005 FEW090 0.6 -2.2 3.3 0.6 82% -5 76.3 1017.4
19 02:53 NE 26 16.09 A Few Clouds FEW090 1.1 -2.2 79% -4 76.28 1016.9
19 01:53 E 26 16.09 A Few Clouds FEW090 1.1 -2.2 79% -4 76.23 1016.4
19 00:53 E 26 16.09 Partly Cloudy SCT090 1.7 -1.7 78% -3 76.2 1016.0
18 23:53 E 30 16.09 Partly Cloudy SCT090 2.2 -1.7 76% -3 76.17 1015.7
Date Time (akdt) Wind (kph) Vis. (km) Weather Sky Cond. Air Dwpt Max. Min. Relative Humidity Wind Chill (°C) Heat Index (°C) altimeter (cm) sea level (mb) 1 hr 3 hr 6 hr
6 hour
Temperature (ºC) Pressure Precipitation (cm)